DLH2480 EDDH-EDDS

Flight info

Callsign DLH2480
Flight time 0h 59m
Altitude 35000
Route IDEKO7G/33 IDEKO N850 NIE DCT BERXO DCT SILWE DCT OSBIT P605 TOSTU T726 LBU
Aircraft A320/M-SDE3FGHIRWY/LB1

Departure

Time 2026-05-04 15:21
Airport Hamburg Helmut Schmidt Airport (EDDH)

Arrival

Time 2026-05-04 16:21
Airport Stuttgart Airport (EDDS)
Time Latitude Longitude Altitude Speed Heading
2026-05-04 15:03 53.63331 10.00353 49 ft 0 kts 86°
2026-05-04 15:14 53.63330 10.00340 48 ft 4 kts 86°
2026-05-04 15:14 53.63329 10.00295 45 ft 4 kts 89°
2026-05-04 15:14 53.63329 10.00249 47 ft 4 kts 94°
2026-05-04 15:14 53.63333 10.00205 48 ft 4 kts 109°
2026-05-04 15:15 53.63345 10.00171 45 ft 4 kts 162°
2026-05-04 15:15 53.63349 10.00168 46 ft 0 kts 176°
2026-05-04 15:18 53.63348 10.00168 46 ft 1 kts 176°
2026-05-04 15:18 53.63320 10.00172 45 ft 7 kts 177°
2026-05-04 15:18 53.63254 10.00175 48 ft 12 kts 177°
2026-05-04 15:19 53.63103 10.00193 46 ft 10 kts 176°
2026-05-04 15:19 53.63045 10.00158 48 ft 9 kts 212°
2026-05-04 15:19 53.62952 10.00059 48 ft 9 kts 214°
2026-05-04 15:20 53.62907 9.99948 45 ft 14 kts 243°
2026-05-04 15:20 53.62863 9.99767 45 ft 17 kts 282°
2026-05-04 15:20 53.62961 9.99664 45 ft 19 kts 332°
2026-05-04 15:20 53.63220 9.99441 47 ft 76 kts 332°
2026-05-04 15:21 53.63879 9.98869 50 ft 135 kts 333°
2026-05-04 15:21 53.64820 9.98043 285 ft 163 kts 332°
2026-05-04 15:21 53.67099 9.96102 1189 ft 200 kts 333°
2026-05-04 15:22 53.68358 9.95029 1990 ft 203 kts 331°
2026-05-04 15:22 53.69626 9.93941 2830 ft 206 kts 329°
2026-05-04 15:22 53.71454 9.90472 4227 ft 213 kts 277°
2026-05-04 15:23 53.71230 9.87919 4692 ft 230 kts 252°
2026-05-04 15:23 53.70704 9.85345 5467 ft 234 kts 252°
2026-05-04 15:23 53.70174 9.82737 6309 ft 236 kts 252°
2026-05-04 15:23 53.69641 9.80106 7095 ft 238 kts 251°
2026-05-04 15:24 53.68570 9.74761 8700 ft 243 kts 251°
2026-05-04 15:24 53.67491 9.69312 10262 ft 248 kts 251°
2026-05-04 15:25 53.66943 9.66540 10967 ft 250 kts 252°
2026-05-04 15:25 53.66279 9.63821 11676 ft 253 kts 242°
2026-05-04 15:25 53.65267 9.61375 12372 ft 257 kts 230°
2026-05-04 15:26 53.62215 9.57744 13217 ft 296 kts 204°
2026-05-04 15:26 53.60126 9.56890 13413 ft 324 kts 190°
2026-05-04 15:26 53.55409 9.55963 14204 ft 351 kts 190°
2026-05-04 15:27 53.52968 9.55460 14865 ft 354 kts 190°
2026-05-04 15:27 53.48038 9.54432 16235 ft 360 kts 191°
2026-05-04 15:28 53.43036 9.53393 17588 ft 365 kts 191°
2026-05-04 15:28 53.40508 9.52875 18253 ft 368 kts 191°
2026-05-04 15:28 53.35428 9.51840 19421 ft 372 kts 191°
2026-05-04 15:29 53.32851 9.51318 20012 ft 375 kts 191°
2026-05-04 15:30 53.22363 9.49176 22351 ft 385 kts 191°
2026-05-04 15:30 53.14312 9.47539 23881 ft 392 kts 192°
2026-05-04 15:31 53.08868 9.46442 24764 ft 396 kts 192°
2026-05-04 15:31 53.06127 9.45892 25191 ft 397 kts 192°
2026-05-04 15:32 52.97854 9.44237 26444 ft 401 kts 192°
2026-05-04 15:32 52.92283 9.43127 27239 ft 405 kts 192°
2026-05-04 15:33 52.86676 9.42005 27998 ft 407 kts 192°
2026-05-04 15:34 52.78210 9.40310 29136 ft 410 kts 192°
2026-05-04 15:34 52.75411 9.39751 29463 ft 412 kts 192°
2026-05-04 15:34 52.69699 9.38623 30077 ft 415 kts 192°
2026-05-04 15:35 52.63938 9.37623 30547 ft 422 kts 187°
2026-05-04 15:35 52.60985 9.37902 30762 ft 430 kts 178°
2026-05-04 15:35 52.58033 9.38912 31050 ft 434 kts 174°
2026-05-04 15:36 52.52163 9.41129 31671 ft 432 kts 174°
2026-05-04 15:36 52.49236 9.42224 31978 ft 432 kts 174°
2026-05-04 15:36 52.46309 9.43317 32291 ft 431 kts 174°
2026-05-04 15:37 52.43382 9.44406 32594 ft 431 kts 174°
2026-05-04 15:37 52.40464 9.45491 32887 ft 430 kts 174°
2026-05-04 15:37 52.37546 9.46577 33168 ft 430 kts 174°
2026-05-04 15:37 52.34633 9.47661 33480 ft 429 kts 174°
2026-05-04 15:38 52.31720 9.48742 33795 ft 429 kts 174°
2026-05-04 15:38 52.28814 9.49821 34088 ft 428 kts 174°
2026-05-04 15:38 52.25908 9.50899 34308 ft 428 kts 174°
2026-05-04 15:38 52.22998 9.51976 34554 ft 429 kts 174°
2026-05-04 15:39 52.20094 9.53045 34811 ft 428 kts 174°
2026-05-04 15:39 52.17179 9.54117 34936 ft 429 kts 173°
2026-05-04 15:40 52.08484 9.57316 34967 ft 427 kts 173°
2026-05-04 15:40 52.02727 9.59422 34960 ft 427 kts 173°
2026-05-04 15:41 51.96931 9.61537 34965 ft 427 kts 173°
2026-05-04 15:41 51.91136 9.63649 34965 ft 427 kts 173°
2026-05-04 15:42 51.85334 9.65759 34959 ft 427 kts 173°
2026-05-04 15:42 51.79538 9.67853 34971 ft 427 kts 173°
2026-05-04 15:43 51.73743 9.69947 34973 ft 427 kts 173°
2026-05-04 15:43 51.67949 9.72041 34953 ft 427 kts 173°
2026-05-04 15:44 51.62147 9.74127 34943 ft 427 kts 173°
2026-05-04 15:44 51.56339 9.76206 34952 ft 427 kts 173°
2026-05-04 15:45 51.50535 9.78286 34957 ft 427 kts 173°
2026-05-04 15:45 51.44730 9.80359 34959 ft 427 kts 173°
2026-05-04 15:46 51.38928 9.82418 34950 ft 427 kts 172°
2026-05-04 15:46 51.33122 9.84475 34955 ft 427 kts 172°
2026-05-04 15:47 51.27323 9.86531 34955 ft 427 kts 172°
2026-05-04 15:47 51.21501 9.88047 34956 ft 420 kts 183°
2026-05-04 15:48 51.15700 9.87621 34961 ft 417 kts 187°
2026-05-04 15:48 51.07032 9.86859 34955 ft 417 kts 187°
2026-05-04 15:49 51.01234 9.86363 34958 ft 418 kts 187°
2026-05-04 15:49 50.95431 9.85864 34968 ft 418 kts 187°
2026-05-04 15:50 50.89624 9.85354 34966 ft 418 kts 187°
2026-05-04 15:50 50.83825 9.84849 34969 ft 417 kts 187°
2026-05-04 15:51 50.78029 9.84355 34969 ft 417 kts 187°
2026-05-04 15:51 50.72235 9.83857 34974 ft 416 kts 187°
2026-05-04 15:52 50.66451 9.83358 34970 ft 416 kts 187°
2026-05-04 15:52 50.60661 9.82864 34950 ft 417 kts 187°
2026-05-04 15:53 50.54859 9.82368 34954 ft 418 kts 187°
2026-05-04 15:53 50.49049 9.81863 34958 ft 419 kts 187°
2026-05-04 15:54 50.43230 9.81361 34948 ft 419 kts 187°
2026-05-04 15:54 50.37405 9.80940 34956 ft 420 kts 186°
2026-05-04 15:55 50.31552 9.80875 34964 ft 421 kts 184°
2026-05-04 15:55 50.25695 9.80940 34964 ft 421 kts 184°
2026-05-04 15:56 50.19844 9.80941 34958 ft 420 kts 184°
2026-05-04 15:56 50.13998 9.80887 34967 ft 420 kts 184°
2026-05-04 15:57 50.08156 9.80831 34972 ft 420 kts 184°
2026-05-04 15:57 50.02314 9.80798 34973 ft 420 kts 184°
2026-05-04 15:58 49.96479 9.80764 34435 ft 420 kts 184°
2026-05-04 15:58 49.93554 9.80748 33933 ft 421 kts 184°
2026-05-04 15:58 49.90623 9.80730 33352 ft 422 kts 184°
2026-05-04 15:59 49.87691 9.80709 32785 ft 423 kts 184°
2026-05-04 15:59 49.84734 9.80687 32227 ft 424 kts 184°
2026-05-04 15:59 49.81784 9.80664 31687 ft 425 kts 184°
2026-05-04 15:59 49.78827 9.80922 31149 ft 426 kts 177°
2026-05-04 16:00 49.75894 9.81495 30621 ft 423 kts 176°
2026-05-04 16:00 49.73027 9.82064 30112 ft 419 kts 176°
2026-05-04 16:00 49.70150 9.82641 29535 ft 415 kts 176°
2026-05-04 16:00 49.67296 9.83217 28941 ft 412 kts 176°
2026-05-04 16:01 49.64467 9.83788 28377 ft 409 kts 176°
2026-05-04 16:01 49.61657 9.84354 27816 ft 405 kts 176°
2026-05-04 16:01 49.58871 9.84914 27266 ft 403 kts 176°
2026-05-04 16:01 49.56105 9.85466 26722 ft 400 kts 176°
2026-05-04 16:02 49.53352 9.85921 26188 ft 394 kts 182°
2026-05-04 16:02 49.50694 9.85307 25684 ft 384 kts 201°
2026-05-04 16:02 49.46143 9.81274 24761 ft 373 kts 214°
2026-05-04 16:03 49.44015 9.79121 24643 ft 360 kts 214°
2026-05-04 16:03 49.42645 9.77734 24560 ft 352 kts 214°
2026-05-04 16:03 49.40733 9.75493 24409 ft 341 kts 223°
2026-05-04 16:03 49.39004 9.72983 23895 ft 343 kts 224°
2026-05-04 16:04 49.37292 9.70439 23391 ft 342 kts 224°
2026-05-04 16:04 49.33895 9.65385 22401 ft 338 kts 224°
2026-05-04 16:04 49.32222 9.62883 21946 ft 335 kts 224°
2026-05-04 16:05 49.30560 9.60393 21498 ft 333 kts 224°
2026-05-04 16:05 49.28914 9.57923 21058 ft 330 kts 224°
2026-05-04 16:05 49.25674 9.53057 20206 ft 326 kts 224°
2026-05-04 16:06 49.24062 9.50633 19795 ft 324 kts 224°
2026-05-04 16:06 49.19294 9.43456 18603 ft 318 kts 224°
2026-05-04 16:07 49.17725 9.41089 18209 ft 316 kts 224°
2026-05-04 16:07 49.13066 9.34078 16904 ft 311 kts 224°
2026-05-04 16:08 49.11527 9.31764 16487 ft 310 kts 224°
2026-05-04 16:08 49.06894 9.24935 15293 ft 307 kts 224°
2026-05-04 16:09 49.03821 9.20471 14997 ft 306 kts 224°
2026-05-04 16:09 49.00735 9.15988 14994 ft 306 kts 225°
2026-05-04 16:10 48.98125 9.10924 14397 ft 303 kts 234°
2026-05-04 16:11 48.94449 9.03193 13311 ft 299 kts 234°
2026-05-04 16:11 48.93232 9.00639 12986 ft 294 kts 234°
2026-05-04 16:12 48.89721 8.93228 10972 ft 288 kts 234°
2026-05-04 16:12 48.86301 8.85898 8963 ft 278 kts 234°
2026-05-04 16:13 48.83848 8.81578 7731 ft 263 kts 207°
2026-05-04 16:13 48.80305 8.80689 6647 ft 262 kts 176°
2026-05-04 16:14 48.76660 8.81223 5324 ft 269 kts 174°
2026-05-04 16:14 48.72987 8.81784 4918 ft 255 kts 173°
2026-05-04 16:15 48.68209 8.83484 4104 ft 233 kts 133°
2026-05-04 16:16 48.66265 8.87391 4001 ft 233 kts 118°
2026-05-04 16:16 48.64846 8.94242 4009 ft 213 kts 104°
2026-05-04 16:17 48.64437 8.98370 3997 ft 188 kts 75°
2026-05-04 16:18 48.65512 9.03993 3509 ft 185 kts 73°
2026-05-04 16:18 48.65867 9.05845 3255 ft 182 kts 72°
2026-05-04 16:19 48.66906 9.11275 2514 ft 177 kts 72°
2026-05-04 16:19 48.67527 9.14532 2095 ft 146 kts 72°
2026-05-04 16:20 48.68337 9.18804 1529 ft 139 kts 70°
2026-05-04 16:20 48.68860 9.21506 1253 ft 116 kts 73°
2026-05-04 16:21 48.69153 9.22524 1227 ft 1 kts 344°
2026-05-04 16:22 48.69168 9.22517 1229 ft 0 kts 344°
2026-05-04 16:22 48.69290 9.22416 1240 ft 6 kts 277°
2026-05-04 16:23 48.69280 9.22355 1239 ft 7 kts 254°
2026-05-04 16:24 48.69176 9.21812 1256 ft 12 kts 254°
2026-05-04 16:25 48.69139 9.21615 1262 ft 10 kts 254°
2026-05-04 16:26 48.69020 9.20988 1271 ft 20 kts 254°
2026-05-04 16:26 48.69049 9.20493 1286 ft 13 kts 313°
2026-05-04 16:27 48.69043 9.20329 1293 ft 6 kts 254°
2026-05-04 16:28 48.68957 9.19974 1303 ft 14 kts 238°
2026-05-04 16:28 48.68884 9.19784 1305 ft 9 kts 250°
2026-05-04 16:29 48.68934 9.19649 1314 ft 1 kts 342°
2026-05-04 16:30 48.68941 9.19646 1314 ft 2 kts 342°
2026-05-04 16:31 48.68943 9.19645 1315 ft 0 kts 342°